Find Starlink 31236

NORAD ID: 58841 Int'l Des: 2024-017 Owner: SPXS Country: US Constellation: starlink operational
LEOCIRCULAR

Live-Position

3D-Globus wird geladen...

Über Starlink 31236

Beschreibung wird geladen...

Nächste Überflüge

Passes for default location (London). Set your location on the main map for personalized predictions.

Höhenverlauf

Loading altitude history...

Zweizeiliger Elementsatz

1 58841U 24017R 26129.68881323 .00000744 00000-0 37261-4 0 9997
2 58841 53.1614 281.1113 0001112 89.0869 271.0259 15.30184295129398
Epoch: 9. Mai 2026 • Age: 30 hours

Aktueller Status

Höhe 482.0 km
Geschwindigkeit 7.62 km/s
Subsatellitenpunkt -22.52°S, 55.79°E
Startdatum 24. Jan. 2024
Alter 2.2 years
Typ internet

Technische Details

Klassifizierung Payload
Masse 730.00 kg
Trockenmasse 700.00 kg
Gesamtmasse 730.00 kg
Länge 0.30 m
Durchmesser 4.10 m
Spannweite 29.00 m
Form Box + pan
Hersteller SPXS
Bus-Typ Starlink V2M
Phasenstatus In Orbit
Besitzer/Staat SPXS/US

Most Searched